Lid_Strength_Index
2 2 3 1 3 3 3 2 2 2 2 1 1 1 1 1 1 1 1 2 2 2 1 2 2 2 2 2 2 4 4 4 6 5 3 3 2 3 2 1 1 2 2
4 5 4 1 1 2 2 1 1 1 1 1 1 1 1 1 1 1 1 1 2 2 2 2 2 1 2 2 3 4 4 4 4 4 5 4 4 4 3 2 1 1 2
5 3 2 2 3 2 2 1 1 2 2 2 2 1 1 1 1 1 1 1 1 1 2 2 2 2 3 3 3 3 3 3 5 5 6 6 5 4 2 3 3 3 2
3 5 3 3 2 2 1 1 2 3 2 2 1 1 1 1 1 1 1 1 2 1 1 1 2 2 2 3 4 5 5 6 6 7 7 7 6 4 4 5 5 4 4
2 3 5 5 3 1 1 1 2 1 2 2 1 1 1 1 1 1 1 1 2 2 2 2 2 1 1 3 4 6 6 7 7 8 8 8 7 6 6 6 6 6 5
2 3 3 2 2 2 2 2 2 2 2 2 2 2 2 1 4 6 2 1 2 2 2 2 2 2 3 3 4 4 5 7 8 8 8 8 8 7 6 7 7 8 8
2 2 3 4 3 2 1 2 2 2 2 2 3 2 3 3 6 6 5 2 2 2 2 2 2 1 3 3 4 5 5 5 6 8 9 8 8 7 6 5 7 7 7
3 2 2 3 2 2 2 2 2 2 2 2 2 3 3 3 7 7 6 2 3 2 2 2 3 4 3 3 4 5 6 5 5 5 7 7 7 6 6 5 6 7 6
3 3 2 3 3 2 2 3 3 3 2 2 2 2 4 4 8 9 6 2 2 2 3 3 3 3 4 6 5 6 7 7 5 6 7 7 7 7 7 7 8 8 7
3 2 2 3 4 4 3 3 2 3 3 2 2 2 3 3 10 10 6 2 3 3 4 3 4 3 7 8 6 7 8 8 7 7 7 7 6 6 5 7 7 7 8
2 3 3 4 5 4 5 3 3 3 2 2 2 2 1 4 8 10 8 2 3 4 4 4 8 9 10 10 9 8 8 8 8 9 9 8 8 7 6 5 6 5 5
2 3 4 5 5 5 6 6 5 3 3 3 3 3 3 5 8 11 9 8 7 4 6 7 9 11 11 11 11 10 10 10 11 10 10 9 8 7 6 5 3 3 3
3 3 2 3 5 6 8 8 8 8 8 8 5 3 6 7 9 12 12 11 9 8 8 9 10 11 11 12 11 11 11 11 11 11 10 9 8 5 4 4 3 3 2
3 2 3 3 4 6 6 6 8 9 9 10 9 7 8 8 10 9 10 10 10 8 8 8 9 10 10 9 10 10 9 10 9 9 8 6 5 4 5 5 5 5 6
3 3 3 3 6 7 9 10 8 8 8 10 11 10 11 11 13 12 11 9 9 11 11 10 10 10 9 9 8 8 8 8 8 7 7 7 7 7 7 5 5 5 7
3 4 3 3 6 5 6 8 10 11 11 11 11 10 10 12 12 13 14 14 14 14 12 11 11 11 10 9 9 9 9 9 9 9 9 9 9 7 7 7 6 8 8
4 4 4 3 3 5 5 6 8 8 10 12 11 11 11 11 12 13 13 13 14 13 12 11 11 9 8 9 9 10 10 10 9 9 9 8 8 8 9 8 8 9 9
3 5 3 3 4 4 5 5 6 7 8 9 10 10 10 11 12 13 13 12 12 13 11 11 9 10 10 10 11 10 10 9 8 8 8 8 8 9 9 9 9 10 9
2 3 3 3 3 3 4 6 5 6 7 7 9 10 11 12 12 12 12 10 9 9 9 10 10 10 11 10 10 10 9 9 9 9 9 9 9 9 9 9 10 13 11
2 5 4 3 4 4 4 5 5 5 5 7 8 9 9 11 10 11 12 12 10 10 10 11 10 11 11 11 10 9 9 9 9 9 9 9 9 9 10 10 10 10 9
2 3 7 3 3 4 4 5 5 5 7 8 8 8 11 9 8 10 10 9 10 10 11 11 11 11 10 9 9 10 10 10 9 9 9 9 9 10 10 9 9 9 9
2 2 3 3 2 3 4 5 6 6 7 8 9 11 12 7 8 9 9 9 8 9 10 9 9 9 8 8 9 9 9 10 10 9 9 9 9 10 9 9 9 8 9
2 2 3 3 3 6 5 6 6 6 7 8 8 8 8 9 9 8 8 8 9 8 8 9 8 8 8 8 8 8 9 10 9 9 9 10 11 10 9 9 8 8 9
3 3 3 4 4 4 5 5 6 8 7 6 7 7 8 7 7 7 7 7 8 8 8 7 8 8 8 9 9 10 10 10 9 10 11 11 11 10 9 9 9 8 8
3 4 4 5 5 5 5 5 7 6 6 7 6 6 6 6 6 6 7 7 8 8 8 8 7 8 8 9 10 10 12 14 14 14 13 12 11 10 10 9 9 8 8
5 4 4 5 5 5 6 7 7 7 8 8 8 6 6 7 6 6 7 7 7 7 7 8 8 8 9 10 11 13 13 14 14 15 13 12 12 12 11 10 9 9 8